Regional Weather Roundup
Issued by NWS

Home | Current Version | Previous Version | Text Only | Print | Product List | Glossary On
Versions: 1 2 3 4 5 6 7 8 9 10 11 12 13 14 15 16 17 18 19 20 21 22 23 24 25 26 27 28 29 30 31 32 33 34 35 36 37 38 39 40 41 42 43 44 45 46 47 48 49 50
848
ASUS43 KBIS 230310
RWRND

NORTH DAKOTA REGIONAL WEATHER ROUNDUP
NATIONAL WEATHER SERVICE BISMARCK ND
900 PM CST WED NOV 22 2017

NOTE: "FAIR" INDICATES FEW OR NO CLOUDS BELOW 12,000 FEET WITH NO
SIGNIFICANT WEATHER AND/OR OBSTRUCTIONS TO VISIBILITY.


NDZ001>003-009>011-017-230400-
NORTHWEST NORTH DAKOTA

CITY           SKY/WX    TMP DP  RH WIND       PRES   REMARKS
WILLISTON      CLOUDY    29  25  85 CALM      29.97S
MINOT          CLOUDY    23  19  85 SW6       29.95F WCI  16
MINOT AFB      CLOUDY    19  16  89 W5        29.94F WCI  12
$$

NDZ018>021-031>035-040>046-230400-
SOUTHWEST NORTH DAKOTA

CITY           SKY/WX    TMP DP  RH WIND       PRES   REMARKS
BISMARCK       CLOUDY    35  26  69 NE5       29.99R
DICKINSON      CLEAR     35  32  88 NW9       29.95S
GARRISON         N/A     27  23  85 SW5       29.97S
HETTINGER ARPT CLEAR     36  31  82 NW7       30.00R
$$

NDZ004>008-012>016-024-026-027-054-230400-
NORTHEAST NORTH DAKOTA

CITY           SKY/WX    TMP DP  RH WIND       PRES   REMARKS
GRAND FORKS    CLOUDY    27  22  81 NW3       29.96R
GRND FRKS AFB  PTCLDY    25  20  83 NW5       29.95S WCI  19
DEVILS LAKE    CLOUDY    27  24  89 NW7       29.96R WCI  19
$$

NDZ022-023-025-028>030-036>039-047>053-230400-
SOUTHEAST NORTH DAKOTA

CITY           SKY/WX    TMP DP  RH WIND       PRES   REMARKS
FARGO          CLOUDY    27  16  63 SE3       29.93R
JAMESTOWN      CLOUDY    27  22  81 NW12      29.94R WCI  17
$$





USA.gov is the U.S. government's official web portal to all federal, state and local government web resources and services.